OBJECT D, 56746

Orbit data source: Space-Track

You're viewing an Uncataloged Satellite

Recently launched and/or uncataloged satellites may have evolving metadata. Metadata may include but not limited to: Owner, Maufacturer, Bus, Motor, and Mission.

OBJECT D, 56746 is a South Korean satellite in SSO that was launched on Thu, 25 May 2023 UTC via an NURI launch vehicle from the Naro Space Center, South Korea (NSC). Unknown objects in Earth's orbit typically refer to objects detected orbiting the Earth but have not yet been identified or cataloged. These objects could be anything from previously untracked satellites, spent rocket stages, debris from satellite collisions, or even natural meteoroids temporarily captured by Earth's gravity.

Loading next visibility...
Identifier
56746, 2023-072D
Orbit
SSO
Country
Flag of KRKR / SKOR
Related business
None
Manufacturer
Unknown
Mission
Operational Civil Ast/Sci
Bus & Motor
Unknown
Mass
Unknown
Launch date (UTC)
2023-05-25 (3 years ago)
Launch vehicle
NURI
Launch site
Naro Space Center, South Korea (NSC)
Object type
Unknown
Shape & HBR
Box + 2 Pan, 0.3 m
Radar Cross Section
0.054 m², Medium (>0.1 m² and < 1m²)

Expand to show TLE details & history
Last TLE update: 11 hours ago

TLE from 11 hours ago
0 OBJECT D
1 56746U 23072D   26171.55572997  .00081902  00000-0  65929-3 0  9992
2 56746  97.4905  28.1001 0000873 183.9307 176.1948 15.70681442171390
Epoch: 2026-06-20T13:20Z
TLE epoch observation values (Epoch: 2026-06-20T13:20:15.069Z)
Latitude
-0.00007°
Longitude
-80.73134°
Altitude
360.691 km
Speed
7.692 km/s
True Right ascension
01h 52m 24s
True Declination
0° 00' 00"
Sunlit
Object was in daylight at epoch
Visualization orbit readout
Latitude
Unknown
Longitude
Unknown
Altitude
Unknown
Speed
Unknown
Apparent Right ascension
Unknown
Apparent Declination
Unknown
Sunlit
N/A
Visualization observer readout
Local Sidereal Time
11:00:01
Azimuth
Unknown
Elevation
Unknown
Doppler factor
Unknown
Orbital elements
Apogee altitude
354.438 km
Perigee altitude
353.263 km
Semi-major axis
6,731.988 km
Eccentricity
0.00009
Inclination
97.4905°
RAAN
28.1001°
Arg. of periapsis
183.9307°
True anomaly
176.19546°
Mean anomaly
176.1948°
Eccentric anomaly
176.19513°
Mean motion
3.92942 °/min
Orbital period
91.62 mins
BSTAR
0.00065929
Loading maneuver chart data...
Computing Atmospheric mass density...
Loading historical data...
Loading historical data...
Loading historical data...
Loading historical data...
Loading historical data...
Loading historical data...
Loading historical data...

Documentation

Showing up to 5 results
|